Flag for Netherlands Weather past 2 weeks in Utrecht, Netherlands

Now
68 °F

Scattered clouds.


Feels Like: 68 °F
Forecast: 58 / 69 °F
Wind: 13 mph from South

Location: Amsterdam Schiphol Airport

Current Time: Aug 28, 2014 at 11:58:56 AM

Latest Report: Aug 28, 2014 at 11:25 AM


Visibility: N/A

Pressure: 29.92 "Hg

Humidity: 78%

Dew point: 61 °F

Location of UtrechtLocation

Historic Weather in Utrecht — Graph

°F

Utrecht temperature yesterday

Maximum temperature yesterday: 70 °F (at 3:55 PM)
Minimum temperature yesterday: 46 °F (at 5:25 AM)
Average temperature yesterday: 58 °F

Past Weeks' High & Low Weather Summary

 TemperatureHumidityPressure
High70 °F (Aug 27, 3:55 PM)100% (Aug 14, 3:55 AM)30.07 "Hg (Aug 14, 3:55 AM)
Low46 °F (Aug 21, 5:55 AM)53% (Aug 13, 1:55 PM)29.59 "Hg (Aug 18, 3:55 AM)
Average58 °F82%29.87 "Hg
* Reported Aug 13 10:25 AM — Aug 28 10:55 AM, Utrecht, Weather by CustomWeather, © 2014

Note: Actual official high and low records may vary slightly from our data, if they occured in-between our weather recording intervals... More about our weather records

Advertising

Utrecht weather history for previous 24 hours

 ConditionsComfort  
Time TempWeatherWind HumidityBarometerVisibility
10:55 AM
Aug 28
66 °FSunny.13 mph83%29.92 "Hg10 mi
10:25 AM66 °FPassing clouds.10 mph83%29.92 "HgN/A
9:55 AM64 °FSunny.9 mph83%29.92 "Hg10 mi
9:25 AM63 °FPassing clouds.9 mph88%29.95 "HgN/A
8:55 AM61 °FClear.9 mph88%29.92 "Hg6 mi
8:25 AM59 °FClear.7 mph94%29.95 "Hg6 mi
7:55 AM57 °FClear.8 mph94%29.95 "Hg5 mi
7:25 AM57 °FClear.9 mph94%29.92 "Hg5 mi
6:55 AM55 °FClear.7 mph94%29.92 "Hg5 mi
6:25 AM55 °FClear.8 mph94%29.95 "Hg5 mi
5:55 AM55 °FClear.8 mph94%29.95 "Hg10 mi
5:25 AM55 °FClear.7 mph88%29.95 "Hg10 mi
4:55 AM55 °FPassing clouds.8 mph88%29.95 "HgN/A
4:25 AM55 °FClear.8 mph88%29.95 "Hg10 mi
3:55 AM55 °FClear.8 mph88%29.95 "Hg10 mi
3:25 AM57 °FClear.8 mph82%29.95 "Hg10 mi
2:55 AM57 °FPassing clouds.8 mph82%29.95 "HgN/A
2:25 AM57 °FPassing clouds.7 mph82%29.98 "HgN/A
1:55 AM55 °FPassing clouds.8 mph88%29.98 "HgN/A
1:25 AM55 °FPassing clouds.6 mph88%29.98 "HgN/A
12:55 AM55 °FClear.7 mph88%29.98 "Hg10 mi
12:25 AM57 °FPassing clouds.8 mph82%29.98 "HgN/A
11:55 PM
Aug 27
55 °FPassing clouds.7 mph88%29.98 "HgN/A
11:25 PM54 °FClear.6 mph94%30.01 "Hg10 mi
10:55 PM55 °FClear.5 mph94%30.01 "Hg10 mi
10:25 PM55 °FClear.6 mph94%30.01 "Hg10 mi
9:55 PM55 °FClear.5 mph94%30.01 "Hg10 mi
9:25 PM55 °FSunny.6 mph88%30.01 "Hg10 mi
8:55 PM55 °FSunny.6 mph88%29.98 "Hg10 mi
7:55 PM61 °FSunny.8 mph83%29.98 "Hg10 mi
7:25 PM64 °FSunny.7 mph73%29.98 "Hg10 mi
6:55 PM66 °FPassing clouds.8 mph68%30.01 "HgN/A
6:25 PM68 °FPassing clouds.7 mph60%30.01 "HgN/A
5:55 PM68 °FPassing clouds.7 mph56%30.01 "HgN/A
4:55 PM68 °FPassing clouds.7 mph56%30.01 "HgN/A
4:25 PM68 °FPassing clouds.9 mph56%30.01 "HgN/A
3:55 PM70 °FPassing clouds.8 mph53%30.01 "HgN/A
3:25 PM68 °FPassing clouds.7 mph56%30.01 "HgN/A
2:55 PM68 °FPassing clouds.7 mph60%30.01 "HgN/A
2:25 PM68 °FPassing clouds.7 mph56%30.01 "HgN/A
1:55 PM66 °FPassing clouds.7 mph56%30.04 "HgN/A
1:25 PM66 °FPassing clouds.6 mph60%30.04 "HgN/A
12:55 PM64 °FPassing clouds.6 mph64%30.04 "HgN/A
12:25 PM64 °FPassing clouds.6 mph64%30.04 "HgN/A
11:55 AM64 °FPassing clouds.5 mph60%30.04 "HgN/A
11:25 AM63 °FPassing clouds.6 mph59%30.04 "HgN/A
Weather by CustomWeather, © 2014

See weather overviewHow to use our weather pages